Regional Weather Roundup
Issued by NWS

Home | Current Version | Previous Version | Graphics & Text | Print | Product List | Glossary On
Versions: 1 2 3 4 5 6 7 8 9 10 11 12 13 14 15 16 17 18 19 20 21 22 23 24 25 26 27 28 29 30 31 32 33 34 35 36 37 38 39 40 41 42 43 44 45 46 47 48 49 50
000
ASUS43 KLSX 152007
RWRMO

WEATHER SUMMARY FOR MISSOURI
NATIONAL WEATHER SERVICE SPRINGFIELD MO
300 PM CDT TUE APR 15 2014

NOTE: "FAIR" INDICATES FEW OR NO CLOUDS BELOW 12,000 FEET WITH NO
       SIGNIFICANT WEATHER AND/OR OBSTRUCTIONS TO VISIBILITY.
       CURRENT SKY AND/OR WEATHER CONDITIONS ARE NOT AVAILABLE FOR
       CHILLICOTHE AND FARMINGTON.

MOZ001>031-035>038-043-044-053-054-152100-
...NORTHERN AND WESTERN MISSOURI...

CITY           SKY/WX    TMP DP  RH WIND       PRES   REMARKS
KANSAS CTY INT MOSUNNY   51  23  33 VRB3      30.13F
KANSAS C DTWN  SUNNY     52  22  30 VRB3      30.14F
LEE`S SUMMIT   SUNNY     50  22  33 SW8       30.15F
ST JOSEPH      SUNNY     50  23  34 S9        30.13F
CHILLICOTHE      N/A     48  20  32 MISG      30.17F
KIRKSVILLE     SUNNY     47  16  29 MISG      30.16F

$$
MOZ066>068-077>081-088>096-101>105-152100-
...SOUTHWEST MISSOURI...

CITY           SKY/WX    TMP DP  RH WIND       PRES   REMARKS
SPRINGFIELD    SUNNY     50  21  32 W8        30.18F
JOPLIN         SUNNY     55  27  34 NW9       30.18F

$$
MOZ032>034-039>042-045>050-055>058-069>072-152100-
...CENTRAL MISSOURI...

CITY           SKY/WX    TMP DP  RH WIND       PRES   REMARKS
COLUMBIA       MOSUNNY   49  23  36 NW14      30.20F
JEFFERSON CITY SUNNY     47  21  35 NW12      30.21F
ROLLA          SUNNY     46  22  38 W9        30.18F
SEDALIA        MOSUNNY   50  23  34 VRB5      30.19F
WHITEMAN AFB   SUNNY     49  23  36 SW9       30.17F
OSAGE BEACH    SUNNY     48  19  32 NW7G18    30.21F

$$
MOZ051-052-059>065-152100-
...EAST CENTRAL MISSOURI...

CITY           SKY/WX    TMP DP  RH WIND       PRES   REMARKS
ST LOUIS INTL  MOSUNNY   48  20  32 N10G17    30.21S
SPIRIT OF STL  MOSUNNY   48  22  35 NW15G21   30.20F
ST CHARLES     SUNNY     45  18  34 SW8       30.20F

$$
MOZ072>076-082>087-097>100-106>115-152100-
...SOUTH CENTRAL AND SOUTHEAST MISSOURI...

CITY           SKY/WX    TMP DP  RH WIND       PRES   REMARKS
CAPE GIRARDEAU SUNNY     48  21  34 N17G23    30.22S
FARMINGTON     SUNNY     46  18  31 NW8G16    30.21S
POPLAR BLUFF   SUNNY     52  18  26 MISG      30.19F
WEST PLAINS    SUNNY     49  20  31 NW5G20    30.19F

$$



USA.gov is the U.S. government's official web portal to all federal, state and local government web resources and services.